SCP
0 0 0 0 0 0 0 0 0 0 0 0 0 0 0 0 0 0 0 0 0 0 0 0 0 0 0 0 0 0 0 0 0 0 0 0 0 0 0 0 0 0 0 0 0
0 0 0 0 0 0 0 0 0 0 0 0 0 0 0 0 0 0 0 0 0 0 0 0 0 0 0 0 0 0 0 0 0 0 0 0 0 0 0 0 0 0 0 0 0
0 0 0 0 0 0 0 0 0 0 0 0 0 0 0 0 0 0 0 0 0 0 0 0 0 0 0 0 0 0 0 0 0 0 0 0 0 0 0 0 0 0 0 0 0
0 0 0 0 0 0 0 0 0 0 0 0 0 0 0 0 0 0 0 0 0 0 0 0 0 0 0 0 0 0 0 0 0 0 0 0 0 0 0 0 0 0 0 0 0
0 0 0 0 0 0 0 0 0 0 0 0 0 0 0 0 0 0 0 0 0 0 0 0 0 0 0 0 0 0 0 0 0 0 0 0 0 0 0 0 0 0 0 0 0
0 0 0 0 0 0 0 0 0 0 0 0 0 0 0 0 0 0 0 0 0 0 0 0 0 0 0 0 0 0 0 0 0 0 0 0 0 0 0 0 0 0 0 0 0
0 0 0 0 0 0 0 0 0 0 0 0 0 0 0 0 0 0 0 0 0 0 0 0 0 0 0 0 0 0 0 0 0 0 0 0 0 0 0 0 0 0 0 0 0
0 0 0 0 0 0 0 0 0 0 0 0 0 0 0 0 0 0 0 0 0 0 0 0 0 0 0 0 0 0 0 0 0 0 0 0 0 0 0 0 0 0 0 0 0
0 0 0 0 0 0 0 0 0 0 0 0 0 0 0 0 0 0 0 0 0 0 0 0 0 0 0 0 0 0 0 0 0 0 0 0 0 0 0 0 0 0 0 0 0
0 0 0 0 0 0 0 0 0 0 0 0 0 0 0 0 0 0 0 0 0 0 0 0 0 0 0 0 0 0 0 0 0 0 0 0 0 0 0 0 0 0 0 0 0
0 0 0 0 0 0 0 0 0 0 0 0 0 0 0 0 0 0 0 0 0 0 0 0 0 0 0 0 0 0 0 0 0 0 0 0 0 0 0 0 0 0 0 0 0
0 0 0 0 0 0 0 0 0 0 0 0 0 0 0 0 0 0 0 0 0 0 0 0 0 0 0 0 0 0 0 0 0 0 0 0 0 0 0 0 0 0 0 0 0
0 0 0 0 0 0 0 0 0 0 0 0 0 0 0 0 0 0 0 0 0 0 0 0 0 0 0 0 0 0 0 0 0 0 0 0 0 0 0 0 0 0 0 0 0
0 0 0 0 0 0 0 0 0 0 0 0 0 0 0 0 0 0 0 0 0 0 0 0 0 0 0 0 0 0 0 0 0 0 0 0 0 0 0 0 0 0 0 0 0
0 0 0 0 0 0 0 0 0 0 0 0 0 0 0 0 0 0 0 0 0 0 0 0 0 0 0 0 0 0 0 0 0 0 0 0 0 0 0 0 0 0 0 0 0
0 0 0 0 0 0 0 0 0 0 0 0 0 0 0 0 0 0 0 0 0 0 0 0 0 0 0 0 0 0 0 0 0 0 0 0 0 0 0 0 0 0 0 0 0
0 0 0 0 0 0 0 0 0 0 0 0 0 0 0 0 0 0 0 0 0 0 0 0 0 0 0 0 0 0 0 0 0 0 0 0 0 0 0 0 0 0 0 0 0
0 0 0 0 0 0 0 0 0 0 0 0 0 0 0 0 0 0 0 0 0 0 0 0 0 0 0 0 0 0 0 0 0 0 0 0 0 0 0 0 0 0 0 0 0
0 0 0 0 0 0 0 0 0 0 0 0 0 0 0 0 0 0 0 0 0 0 0 0 0 0 0 0 0 0 0 0 0 0 0 0 0 0 0 0 0 0 0 0 0
0 0 0 0 0 0 0 0 0 0 0 0 0 0 0 0 0 0 0 0 0 0 0 0 0 0 0 0 0 0 0 0 0 0 0 0 0 0 0 0 0 0 0 0 0
0 0 0 0 0 0 0 0 0 0 0 0 0 0 0 0 0 0 0 0 0 0 0 0 0 0 0 0 0 0 0 0 0 0 0 0 0 0 0 0 0 0 0 0 0
0 0 0 0 0 0 0 0 0 0 0 0 0 0 0 0 0 0 0 0 0 0 0 0 0 0 0 0 0 0 0 0 0 0 0 0 0 0 0 0 0 0 0 0 0
0 0 0 0 0 0 0 0 0 0 0 0 0 0 0 0 0 0 0 0 0 0 0 0 0 0 0 0 0 0 0 0 0 0 0 0 0 0 0 0 0 0 0 0 0
0 0 0 0 0 0 0 0 0 0 0 0 0 0 0 0 0 0 0 0 0 0 0 0 0 0 0 0 0 0 0 0 0 0 0 0 0 0 0 0 0 0 0 0 0
0 0 0 0 0 0 0 0 0 0 0 0 0 0 0 0 0 0 0 0 0 0 0 0 0 0 0 0 0 0 0 0 0 0 0 0 0 0 0 0 0 0 0 0 0
0 0 0 0 0 0 0 0 0 0 0 0 0 0 0 0 0 0 0 0 0 0 0 0 0 0 0 0 0 0 0 0 0 0 0 0 0 0 0 0 0 0 0 0 0
0 0 0 0 0 0 0 0 0 0 0 0 0 0 0 0 0 0 0 0 0 0 0 0 0 0 0 0 0 0 0 0 0 0 0 0 0 0 0 0 0 0 0 0 0
Wind_Speed_500mb
6 6 6 6 6 6 6 6 6 7 7 9 11 13 14 16 18 18 17 10 8 9 11 9 6 2 3 6 6 4 4 5 9 12 10 5 6 3 3 0 6 5 3 10 17
11 11 10 10 9 9 9 10 10 12 11 12 13 16 18 19 21 21 13 10 8 8 9 10 9 8 5 4 3 1 4 3 4 6 9 7 2 3 5 5 9 6 12 18 16
17 16 15 15 14 14 13 13 14 15 16 17 18 18 19 21 21 4 4 8 11 12 14 13 13 4 4 2 2 2 2 6 7 8 5 7 3 3 3 5 9 11 11 5 0
22 21 20 19 18 18 17 17 17 18 20 20 21 20 18 15 8 3 7 11 11 12 13 13 7 3 3 4 2 5 4 5 5 10 8 7 5 5 5 4 5 4 4 7 8
25 25 25 24 22 21 22 22 21 22 23 23 23 21 18 10 15 16 12 14 15 14 13 12 9 8 6 7 6 5 4 8 9 13 11 8 10 6 8 7 7 4 1 3 6
31 29 28 28 28 26 26 26 26 25 25 24 23 22 19 13 18 20 19 21 22 19 18 17 9 12 9 6 7 5 5 12 13 10 8 10 7 11 8 9 4 4 1 2 3
35 35 33 32 33 32 31 30 29 28 27 26 25 24 26 33 20 20 21 21 21 20 20 20 16 11 14 8 5 3 9 13 18 7 9 20 10 9 7 12 6 1 3 6 7
39 38 39 36 34 35 34 31 31 31 30 27 25 23 18 25 26 35 32 23 21 21 21 20 19 14 6 15 5 5 5 7 6 8 7 15 8 15 3 14 6 2 3 4 8
39 39 38 39 37 34 34 33 32 31 30 26 22 17 16 24 28 33 30 27 25 22 21 21 22 9 12 10 7 6 12 12 6 7 6 16 3 14 7 10 8 4 2 2 2
38 39 38 36 36 35 29 30 30 29 28 23 25 11 29 16 18 26 31 28 22 26 20 16 7 8 8 17 18 16 12 10 13 8 10 13 13 14 10 12 10 8 6 5 4
40 39 39 37 34 32 26 20 19 17 36 25 14 13 6 25 22 23 31 33 23 18 18 11 16 28 39 38 7 7 10 18 7 5 9 24 23 24 18 14 13 12 11 10 9
48 45 42 39 37 35 31 20 17 6 19 33 47 42 20 25 18 30 39 26 20 19 19 10 31 31 6 20 19 13 19 23 11 7 8 20 26 15 22 15 15 16 15 15 16
56 53 49 44 41 44 43 40 29 17 15 19 47 53 50 51 32 43 52 28 14 20 33 28 5 25 16 15 22 25 27 23 18 3 8 11 27 25 9 11 13 15 18 19 20
47 56 58 50 49 52 53 30 30 6 11 14 17 19 35 33 19 39 59 26 12 28 19 23 10 16 22 23 24 28 24 19 16 9 19 5 13 8 14 15 20 24 26 27 30
49 38 64 70 65 52 50 38 34 16 12 9 10 11 27 28 23 15 50 26 22 19 15 12 19 19 19 16 21 10 9 19 13 21 10 16 12 8 10 21 25 36 36 34 33
47 62 48 73 80 58 39 41 54 10 23 11 10 13 17 9 5 13 26 16 14 11 3 7 2 11 9 6 11 25 15 11 6 5 15 31 24 13 13 17 32 44 46 44 41
49 47 48 51 80 73 48 62 11 11 4 14 10 16 15 13 9 9 26 26 23 18 30 13 14 9 10 11 6 10 23 8 10 11 12 7 17 22 14 16 34 56 59 52 46
54 64 50 41 69 63 62 13 13 21 35 9 10 11 18 17 9 12 20 24 29 10 8 27 15 31 24 26 19 30 30 9 14 11 4 5 14 9 1 12 10 48 56 54 52
50 59 63 53 54 66 55 20 15 15 18 25 11 12 18 11 11 15 22 19 28 31 24 19 13 8 11 8 23 19 22 4 11 3 3 11 8 10 8 12 20 42 52 58 58
45 49 69 59 51 68 26 28 17 14 14 14 38 28 34 28 25 27 28 18 17 40 18 12 6 4 6 7 0 12 24 9 7 10 12 10 12 17 21 31 27 40 61 59 57
43 22 40 39 47 38 18 15 19 32 22 18 34 25 19 22 32 21 18 6 29 28 37 10 6 7 10 24 36 11 14 7 5 7 9 7 10 10 23 32 39 49 61 69 68
45 15 30 41 30 12 25 17 19 28 35 5 2 14 22 26 29 33 35 20 37 36 34 21 6 11 27 0 7 16 18 24 14 11 8 6 12 9 6 18 38 47 57 64 68
31 35 30 47 17 23 6 11 20 15 18 20 21 15 10 17 10 26 19 8 32 30 34 23 11 7 5 9 5 18 22 26 13 4 22 15 11 7 7 16 32 35 45 58 66
14 11 26 47 42 19 16 31 24 44 22 21 11 12 8 14 14 9 12 10 30 37 27 39 15 29 33 22 22 24 35 33 30 19 20 35 27 15 20 23 29 37 44 53 64
27 8 17 11 33 30 38 23 15 7 26 42 16 30 25 19 35 33 34 4 3 13 13 21 19 36 47 18 14 24 42 43 47 51 34 41 41 30 32 33 43 47 43 51 63
8 11 10 8 20 37 41 17 27 34 21 17 26 31 47 32 26 17 14 12 11 5 10 8 17 30 45 30 18 11 28 47 51 49 44 35 34 8 36 28 28 44 50 54 67
23 23 7 9 10 14 25 37 35 24 9 22 15 31 27 36 46 44 22 29 20 18 22 11 14 12 37 21 14 10 42 33 32 35 40 29 36 12 14 26 41 43 47 62 73
Wind_Direction_500mb
221 232 231 235 244 251 261 270 279 290 296 306 314 318 319 318 314 308 299 265 250 231 221 224 213 202 91 82 69 85 215 179 171 174 144 137 169 121 328 219 55 69 87 278 290
244 249 254 256 261 266 273 279 285 289 295 302 308 313 315 317 314 301 277 235 227 195 191 185 170 140 93 84 36 267 245 168 145 170 151 140 168 353 212 330 129 132 333 297 276
245 250 251 255 259 264 269 273 284 291 297 302 305 310 313 320 317 261 195 169 152 147 148 154 151 119 96 74 35 137 259 153 181 201 175 155 251 124 264 160 42 326 335 5 98
253 252 253 252 258 264 270 276 281 287 292 295 298 302 305 311 291 195 173 174 168 162 164 164 175 126 146 195 144 210 194 213 169 176 160 185 175 143 89 133 242 253 96 67 87
246 253 257 259 258 260 267 272 276 280 284 288 293 297 302 279 256 245 227 208 202 202 207 214 201 169 198 167 169 222 200 216 220 229 242 193 210 161 95 141 153 154 117 55 51
251 248 253 257 260 263 267 269 272 274 277 281 284 289 289 256 259 246 237 231 226 230 232 217 215 188 132 176 220 156 246 269 268 236 203 203 162 173 146 145 159 176 204 11 9
253 256 254 257 261 261 263 266 269 270 271 277 280 282 276 263 260 246 236 228 226 227 224 211 203 179 153 151 163 176 275 277 248 251 203 152 151 168 149 168 169 181 344 348 344
254 255 259 257 259 264 263 263 264 267 269 273 278 279 260 261 248 240 233 228 220 218 216 205 190 181 151 133 96 245 251 263 131 174 174 199 180 160 190 194 197 224 264 281 296
256 254 254 257 257 257 262 264 263 264 265 265 270 260 261 251 237 231 226 226 219 204 191 184 174 145 140 184 225 207 255 220 269 209 171 217 187 169 158 189 187 192 214 216 247
256 256 254 253 256 256 256 259 262 264 260 261 249 262 235 226 219 216 212 202 185 181 152 164 152 189 170 192 230 206 214 222 235 174 212 224 231 173 191 202 199 187 170 139 125
256 256 255 255 255 253 253 256 265 261 229 212 209 202 210 204 197 197 194 180 167 169 191 166 205 217 210 213 233 195 214 228 205 172 235 239 252 202 194 196 201 195 169 145 134
261 256 253 252 251 249 239 218 221 229 290 245 236 232 230 199 182 193 184 176 180 199 142 166 228 227 209 201 205 217 240 239 271 207 241 255 251 196 198 211 204 182 170 153 136
254 256 250 248 247 243 241 237 242 263 269 251 230 231 229 221 213 199 187 193 189 181 195 211 185 188 164 173 199 225 227 234 259 159 232 276 259 228 180 175 169 167 165 155 147
250 247 246 237 236 239 239 238 227 213 265 227 211 226 207 198 229 214 198 186 182 208 186 238 178 164 189 209 198 232 215 230 226 233 259 216 281 212 197 189 193 183 181 171 161
258 267 246 227 226 223 243 226 198 158 263 109 134 173 166 183 140 177 182 198 196 169 180 199 177 179 193 207 186 268 150 204 211 230 264 205 259 219 173 214 201 192 189 181 172
251 253 265 243 226 230 223 184 155 150 234 195 134 159 155 180 126 115 169 181 174 139 211 261 167 197 201 106 193 136 107 85 101 189 250 230 219 193 204 215 185 190 191 184 177
257 245 255 264 225 223 205 164 155 203 154 180 169 176 183 159 152 173 177 187 181 191 222 206 213 174 167 117 100 178 164 173 213 209 246 137 206 250 210 183 193 185 188 184 181
253 255 243 264 241 225 186 174 200 214 214 98 109 141 188 160 173 164 168 196 218 198 144 201 228 183 189 208 179 189 189 197 203 202 190 119 228 240 115 157 186 191 185 181 184
246 254 258 247 234 225 180 211 216 199 192 162 127 169 199 205 186 174 200 214 202 196 203 193 241 184 183 149 163 183 212 142 106 67 248 209 230 236 183 190 170 180 184 188 189
233 245 252 246 239 221 204 209 225 206 139 173 205 194 189 185 178 194 184 198 199 196 207 196 195 207 120 121 95 208 150 172 223 207 229 213 244 232 206 205 188 185 191 193 193
222 226 252 244 233 216 217 217 216 222 171 183 209 190 213 181 199 195 209 195 208 189 192 154 224 134 144 210 191 159 188 212 199 216 222 256 224 208 212 198 192 197 194 192 193
203 214 214 188 197 212 218 190 204 206 218 209 297 214 197 195 195 205 207 215 184 148 180 195 134 174 203 90 304 242 215 192 200 186 243 294 250 153 177 194 197 196 197 196 197
204 215 195 194 222 222 172 192 201 175 193 202 212 213 166 195 203 224 212 179 161 175 180 173 189 193 232 208 169 217 204 218 240 72 206 203 241 162 163 175 202 202 195 197 198
212 198 206 211 228 228 220 225 209 201 207 194 182 166 165 196 215 222 235 200 185 194 201 188 163 205 220 227 161 205 205 201 197 217 204 227 232 198 200 204 194 200 201 199 201
219 234 196 201 223 215 229 231 227 221 221 202 214 212 210 229 229 225 219 139 176 211 173 175 229 224 243 259 229 211 202 196 208 218 209 235 226 213 199 199 205 204 198 192 200
256 232 203 286 207 216 227 221 230 230 222 219 237 205 211 214 196 194 208 171 188 139 184 202 225 227 244 227 221 230 212 210 215 219 229 243 248 196 198 201 200 208 197 199 203
231 236 217 225 192 203 211 215 215 194 190 237 231 233 214 223 231 229 217 203 164 159 196 182 211 189 236 211 182 239 222 201 211 217 219 218 236 135 181 206 210 210 205 211 217
Wind_Speed_850mb
6 6 6 6 6 6 6 6 6 7 7 9 11 13 14 16 18 18 17 10 8 9 11 9 6 2 3 6 6 4 4 5 9 12 10 5 6 3 3 0 6 5 3 10 17
11 11 10 10 9 9 9 10 10 12 11 12 13 16 18 19 21 21 13 10 8 8 9 10 9 8 5 4 3 1 4 3 4 6 9 7 2 3 5 5 9 6 12 18 16
17 16 15 15 14 14 13 13 14 15 16 17 18 18 19 21 21 4 4 8 11 12 14 13 13 4 4 2 2 2 2 6 7 8 5 7 3 3 3 5 9 11 11 5 0
22 21 20 19 18 18 17 17 17 18 20 20 21 20 18 15 8 3 7 11 11 12 13 13 7 3 3 4 2 5 4 5 5 10 8 7 5 5 5 4 5 4 4 7 8
25 25 25 24 22 21 22 22 21 22 23 23 23 21 18 10 15 16 12 14 15 14 13 12 9 8 6 7 6 5 4 8 9 13 11 8 10 6 8 7 7 4 1 3 6
31 29 28 28 28 26 26 26 26 25 25 24 23 22 19 13 18 20 19 21 22 19 18 17 9 12 9 6 7 5 5 12 13 10 8 10 7 11 8 9 4 4 1 2 3
35 35 33 32 33 32 31 30 29 28 27 26 25 24 26 33 20 20 21 21 21 20 20 20 16 11 14 8 5 3 9 13 18 7 9 20 10 9 7 12 6 1 3 6 7
39 38 39 36 34 35 34 31 31 31 30 27 25 23 18 25 26 35 32 23 21 21 21 20 19 14 6 15 5 5 5 7 6 8 7 15 8 15 3 14 6 2 3 4 8
39 39 38 39 37 34 34 33 32 31 30 26 22 17 16 24 28 33 30 27 25 22 21 21 22 9 12 10 7 6 12 12 6 7 6 16 3 14 7 10 8 4 2 2 2
38 39 38 36 36 35 29 30 30 29 28 23 25 11 29 16 18 26 31 28 22 26 20 16 7 8 8 17 18 16 12 10 13 8 10 13 13 14 10 12 10 8 6 5 4
40 39 39 37 34 32 26 20 19 17 36 25 14 13 6 25 22 23 31 33 23 18 18 11 16 28 39 38 7 7 10 18 7 5 9 24 23 24 18 14 13 12 11 10 9
48 45 42 39 37 35 31 20 17 6 19 33 47 42 20 25 18 30 39 26 20 19 19 10 31 31 6 20 19 13 19 23 11 7 8 20 26 15 22 15 15 16 15 15 16
56 53 49 44 41 44 43 40 29 17 15 19 47 53 50 51 32 43 52 28 14 20 33 28 5 25 16 15 22 25 27 23 18 3 8 11 27 25 9 11 13 15 18 19 20
47 56 58 50 49 52 53 30 30 6 11 14 17 19 35 33 19 39 59 26 12 28 19 23 10 16 22 23 24 28 24 19 16 9 19 5 13 8 14 15 20 24 26 27 30
49 38 64 70 65 52 50 38 34 16 12 9 10 11 27 28 23 15 50 26 22 19 15 12 19 19 19 16 21 10 9 19 13 21 10 16 12 8 10 21 25 36 36 34 33
47 62 48 73 80 58 39 41 54 10 23 11 10 13 17 9 5 13 26 16 14 11 3 7 2 11 9 6 11 25 15 11 6 5 15 31 24 13 13 17 32 44 46 44 41
49 47 48 51 80 73 48 62 11 11 4 14 10 16 15 13 9 9 26 26 23 18 30 13 14 9 10 11 6 10 23 8 10 11 12 7 17 22 14 16 34 56 59 52 46
54 64 50 41 69 63 62 13 13 21 35 9 10 11 18 17 9 12 20 24 29 10 8 27 15 31 24 26 19 30 30 9 14 11 4 5 14 9 1 12 10 48 56 54 52
50 59 63 53 54 66 55 20 15 15 18 25 11 12 18 11 11 15 22 19 28 31 24 19 13 8 11 8 23 19 22 4 11 3 3 11 8 10 8 12 20 42 52 58 58
45 49 69 59 51 68 26 28 17 14 14 14 38 28 34 28 25 27 28 18 17 40 18 12 6 4 6 7 0 12 24 9 7 10 12 10 12 17 21 31 27 40 61 59 57
43 22 40 39 47 38 18 15 19 32 22 18 34 25 19 22 32 21 18 6 29 28 37 10 6 7 10 24 36 11 14 7 5 7 9 7 10 10 23 32 39 49 61 69 68
45 15 30 41 30 12 25 17 19 28 35 5 2 14 22 26 29 33 35 20 37 36 34 21 6 11 27 0 7 16 18 24 14 11 8 6 12 9 6 18 38 47 57 64 68
31 35 30 47 17 23 6 11 20 15 18 20 21 15 10 17 10 26 19 8 32 30 34 23 11 7 5 9 5 18 22 26 13 4 22 15 11 7 7 16 32 35 45 58 66
14 11 26 47 42 19 16 31 24 44 22 21 11 12 8 14 14 9 12 10 30 37 27 39 15 29 33 22 22 24 35 33 30 19 20 35 27 15 20 23 29 37 44 53 64
27 8 17 11 33 30 38 23 15 7 26 42 16 30 25 19 35 33 34 4 3 13 13 21 19 36 47 18 14 24 42 43 47 51 34 41 41 30 32 33 43 47 43 51 63
8 11 10 8 20 37 41 17 27 34 21 17 26 31 47 32 26 17 14 12 11 5 10 8 17 30 45 30 18 11 28 47 51 49 44 35 34 8 36 28 28 44 50 54 67
23 23 7 9 10 14 25 37 35 24 9 22 15 31 27 36 46 44 22 29 20 18 22 11 14 12 37 21 14 10 42 33 32 35 40 29 36 12 14 26 41 43 47 62 73
Wind_Direction_850mb
221 232 231 235 244 251 261 270 279 290 296 306 314 318 319 318 314 308 299 265 250 231 221 224 213 202 91 82 69 85 215 179 171 174 144 137 169 121 328 219 55 69 87 278 290
244 249 254 256 261 266 273 279 285 289 295 302 308 313 315 317 314 301 277 235 227 195 191 185 170 140 93 84 36 267 245 168 145 170 151 140 168 353 212 330 129 132 333 297 276
245 250 251 255 259 264 269 273 284 291 297 302 305 310 313 320 317 261 195 169 152 147 148 154 151 119 96 74 35 137 259 153 181 201 175 155 251 124 264 160 42 326 335 5 98
253 252 253 252 258 264 270 276 281 287 292 295 298 302 305 311 291 195 173 174 168 162 164 164 175 126 146 195 144 210 194 213 169 176 160 185 175 143 89 133 242 253 96 67 87
246 253 257 259 258 260 267 272 276 280 284 288 293 297 302 279 256 245 227 208 202 202 207 214 201 169 198 167 169 222 200 216 220 229 242 193 210 161 95 141 153 154 117 55 51
251 248 253 257 260 263 267 269 272 274 277 281 284 289 289 256 259 246 237 231 226 230 232 217 215 188 132 176 220 156 246 269 268 236 203 203 162 173 146 145 159 176 204 11 9
253 256 254 257 261 261 263 266 269 270 271 277 280 282 276 263 260 246 236 228 226 227 224 211 203 179 153 151 163 176 275 277 248 251 203 152 151 168 149 168 169 181 344 348 344
254 255 259 257 259 264 263 263 264 267 269 273 278 279 260 261 248 240 233 228 220 218 216 205 190 181 151 133 96 245 251 263 131 174 174 199 180 160 190 194 197 224 264 281 296
256 254 254 257 257 257 262 264 263 264 265 265 270 260 261 251 237 231 226 226 219 204 191 184 174 145 140 184 225 207 255 220 269 209 171 217 187 169 158 189 187 192 214 216 247
256 256 254 253 256 256 256 259 262 264 260 261 249 262 235 226 219 216 212 202 185 181 152 164 152 189 170 192 230 206 214 222 235 174 212 224 231 173 191 202 199 187 170 139 125
256 256 255 255 255 253 253 256 265 261 229 212 209 202 210 204 197 197 194 180 167 169 191 166 205 217 210 213 233 195 214 228 205 172 235 239 252 202 194 196 201 195 169 145 134
261 256 253 252 251 249 239 218 221 229 290 245 236 232 230 199 182 193 184 176 180 199 142 166 228 227 209 201 205 217 240 239 271 207 241 255 251 196 198 211 204 182 170 153 136
254 256 250 248 247 243 241 237 242 263 269 251 230 231 229 221 213 199 187 193 189 181 195 211 185 188 164 173 199 225 227 234 259 159 232 276 259 228 180 175 169 167 165 155 147
250 247 246 237 236 239 239 238 227 213 265 227 211 226 207 198 229 214 198 186 182 208 186 238 178 164 189 209 198 232 215 230 226 233 259 216 281 212 197 189 193 183 181 171 161
258 267 246 227 226 223 243 226 198 158 263 109 134 173 166 183 140 177 182 198 196 169 180 199 177 179 193 207 186 268 150 204 211 230 264 205 259 219 173 214 201 192 189 181 172
251 253 265 243 226 230 223 184 155 150 234 195 134 159 155 180 126 115 169 181 174 139 211 261 167 197 201 106 193 136 107 85 101 189 250 230 219 193 204 215 185 190 191 184 177
257 245 255 264 225 223 205 164 155 203 154 180 169 176 183 159 152 173 177 187 181 191 222 206 213 174 167 117 100 178 164 173 213 209 246 137 206 250 210 183 193 185 188 184 181
253 255 243 264 241 225 186 174 200 214 214 98 109 141 188 160 173 164 168 196 218 198 144 201 228 183 189 208 179 189 189 197 203 202 190 119 228 240 115 157 186 191 185 181 184
246 254 258 247 234 225 180 211 216 199 192 162 127 169 199 205 186 174 200 214 202 196 203 193 241 184 183 149 163 183 212 142 106 67 248 209 230 236 183 190 170 180 184 188 189
233 245 252 246 239 221 204 209 225 206 139 173 205 194 189 185 178 194 184 198 199 196 207 196 195 207 120 121 95 208 150 172 223 207 229 213 244 232 206 205 188 185 191 193 193
222 226 252 244 233 216 217 217 216 222 171 183 209 190 213 181 199 195 209 195 208 189 192 154 224 134 144 210 191 159 188 212 199 216 222 256 224 208 212 198 192 197 194 192 193
203 214 214 188 197 212 218 190 204 206 218 209 297 214 197 195 195 205 207 215 184 148 180 195 134 174 203 90 304 242 215 192 200 186 243 294 250 153 177 194 197 196 197 196 197
204 215 195 194 222 222 172 192 201 175 193 202 212 213 166 195 203 224 212 179 161 175 180 173 189 193 232 208 169 217 204 218 240 72 206 203 241 162 163 175 202 202 195 197 198
212 198 206 211 228 228 220 225 209 201 207 194 182 166 165 196 215 222 235 200 185 194 201 188 163 205 220 227 161 205 205 201 197 217 204 227 232 198 200 204 194 200 201 199 201
219 234 196 201 223 215 229 231 227 221 221 202 214 212 210 229 229 225 219 139 176 211 173 175 229 224 243 259 229 211 202 196 208 218 209 235 226 213 199 199 205 204 198 192 200
256 232 203 286 207 216 227 221 230 230 222 219 237 205 211 214 196 194 208 171 188 139 184 202 225 227 244 227 221 230 212 210 215 219 229 243 248 196 198 201 200 208 197 199 203
231 236 217 225 192 203 211 215 215 194 190 237 231 233 214 223 231 229 217 203 164 159 196 182 211 189 236 211 182 239 222 201 211 217 219 218 236 135 181 206 210 210 205 211 217